Wetbulb
37.45 37.60 37.75 37.51 37.78 38.05 37.97 37.28 36.22 36.34 36.67 36.55 36.31 36.18 36.17 36.25 36.41 36.55 36.81 36.88 37.16 37.15 36.96 36.66 36.42 35.64 34.88 34.53 35.02 35.17 35.19 34.88 34.67 34.49 34.48 34.60 34.70 34.84 34.78 34.57 34.41 34.27 34.15 33.90 33.89 33.85 34.01 34.12 34.88 35.60 35.77 34.97 34.33 34.09 33.86 33.39 33.30 33.57 34.02 34.33 34.28 34.10 33.97 34.18 33.95 33.89 33.93 33.97 33.50
37.22 36.82 36.53 36.32 36.72 37.46 37.85 37.19 36.80 36.79 36.86 37.06 36.54 36.11 35.96 36.31 36.20 36.14 36.10 36.31 37.19 37.20 36.88 36.69 35.13 34.59 34.59 34.71 34.86 34.96 34.94 34.79 34.68 34.50 34.32 34.37 34.28 34.28 34.36 34.23 34.12 33.98 33.89 33.96 33.92 34.19 34.53 34.40 35.35 36.18 36.62 35.75 34.71 34.25 33.89 33.07 33.37 33.93 34.40 34.22 34.32 34.17 34.01 33.93 33.19 32.60 32.54 32.63 31.86
37.19 36.84 36.72 36.87 37.29 37.75 38.02 37.47 36.71 36.02 35.88 36.18 36.24 36.17 36.17 36.53 36.47 36.45 36.24 35.97 35.63 35.79 36.06 36.08 34.71 34.47 34.61 34.72 34.70 34.60 34.70 34.64 34.66 34.56 34.39 34.25 34.15 34.00 33.86 33.71 33.69 33.62 33.65 33.90 33.85 34.19 34.47 34.40 35.21 36.11 36.60 36.46 34.74 34.43 34.80 34.42 33.97 34.13 34.10 33.49 33.59 33.86 34.11 34.40 32.70 31.96 31.91 32.51 31.18
37.12 37.04 37.15 37.07 37.07 37.07 37.13 37.08 35.90 35.39 35.30 35.68 35.07 35.23 35.86 36.34 36.48 36.12 35.47 34.53 34.78 35.05 35.23 34.82 34.50 34.31 34.38 34.50 34.71 34.70 34.55 34.37 34.59 34.55 34.47 34.15 33.85 33.69 33.41 33.21 33.24 33.26 33.45 33.93 33.96 33.96 33.91 34.06 35.30 35.84 35.52 33.98 33.58 33.95 34.49 34.58 33.16 33.07 33.16 32.63 32.61 32.68 32.89 33.41 32.26 32.25 32.15 31.37 29.54
37.08 37.08 37.07 36.89 36.81 36.41 35.94 35.56 35.27 35.21 35.31 35.45 35.75 35.94 35.96 35.80 35.61 35.34 35.18 35.48 35.64 35.47 34.83 33.92 34.27 34.21 34.19 34.59 34.95 34.97 34.87 34.64 34.25 34.15 34.15 33.86 33.36 32.95 32.66 32.64 32.64 32.62 32.62 33.05 33.60 33.87 33.99 33.78 35.42 35.42 34.51 33.34 34.09 33.72 32.83 31.84 31.59 31.64 31.89 32.50 32.38 32.02 31.46 30.84 30.91 30.62 29.97 28.88 28.08
37.08 36.65 36.28 35.87 35.87 35.67 35.42 35.06 35.04 34.97 35.12 35.42 35.78 35.74 35.83 36.41 36.30 36.30 36.27 36.09 35.34 34.68 34.03 33.64 34.02 34.32 34.66 35.13 35.34 35.24 35.14 34.80 34.15 33.67 33.26 32.93 32.52 32.34 32.29 32.41 32.34 32.08 31.87 31.83 32.40 33.11 33.45 33.33 35.30 35.26 34.42 34.08 32.81 31.82 31.20 30.62 30.24 30.04 30.12 30.60 30.57 30.12 29.35 28.66 28.95 28.59 27.87 26.95 26.30
37.05 36.50 36.04 35.59 35.54 35.56 35.43 35.05 34.72 34.59 34.76 35.22 35.45 35.22 34.97 35.23 35.29 35.26 35.34 35.27 35.16 34.79 34.53 34.60 35.15 35.37 35.42 35.29 35.09 34.84 34.32 33.65 33.16 32.83 32.40 32.09 31.81 31.66 31.58 31.77 31.75 31.56 31.30 30.96 31.30 31.93 32.40 32.54 33.44 33.24 32.74 32.51 31.97 30.65 29.38 29.25 29.25 28.90 28.59 28.50 29.09 28.71 27.79 26.58 27.19 27.08 26.32 25.00 24.83
36.71 36.28 35.91 35.54 35.49 35.61 35.74 35.53 35.28 35.29 35.41 35.71 35.74 35.42 34.96 35.09 35.40 35.63 35.76 35.67 35.54 35.23 35.00 35.16 35.49 35.40 35.04 34.48 34.09 33.54 33.00 32.51 32.21 31.93 31.53 31.27 31.27 31.13 31.04 30.97 31.04 30.82 30.46 29.93 30.30 30.56 31.08 31.36 31.88 31.60 31.21 31.54 31.38 29.85 28.19 27.65 27.62 27.17 26.69 26.21 26.77 26.43 25.68 25.29 25.06 25.21 25.10 24.44 24.50
36.26 35.73 35.16 34.95 35.10 35.37 35.56 35.43 35.46 35.49 35.47 35.21 35.51 35.51 35.42 35.61 35.86 36.13 36.20 36.11 35.38 34.86 34.83 35.16 35.06 34.77 34.36 33.81 33.14 32.39 31.75 31.19 31.15 30.94 30.78 30.58 30.85 30.83 30.73 30.44 30.54 30.28 29.72 28.89 29.37 29.54 29.75 30.48 30.75 30.52 30.23 30.61 29.80 28.33 26.98 26.80 26.46 25.96 25.43 25.20 24.96 24.71 24.57 24.37 24.14 24.20 24.21 23.86 24.18
35.90 35.36 34.99 34.83 34.81 34.94 35.13 35.39 35.53 35.52 35.45 35.14 35.39 35.51 35.67 35.74 36.26 36.46 36.13 35.47 34.70 34.80 35.11 35.02 34.78 34.39 33.81 33.08 32.47 31.79 31.17 30.64 30.48 30.48 30.48 30.38 30.66 30.73 30.67 30.13 30.24 29.94 29.36 28.15 28.82 28.85 28.83 29.27 28.58 28.18 27.87 27.80 27.18 26.73 26.49 26.58 26.01 25.34 24.75 24.69 23.98 23.60 23.54 23.77 23.48 23.58 23.56 23.28 23.57
35.91 35.38 35.04 34.90 34.74 34.87 35.15 35.78 35.63 35.63 35.63 35.53 35.49 35.67 35.81 35.97 36.28 36.03 35.45 34.86 34.78 34.99 35.07 34.52 34.34 33.91 33.20 32.37 31.84 31.53 31.13 30.75 30.73 30.72 30.76 30.73 30.47 30.26 30.17 29.81 29.59 29.32 28.74 27.85 28.33 28.29 28.15 28.26 27.40 27.13 27.01 26.94 26.52 26.35 26.13 25.83 25.09 24.24 23.47 23.08 22.79 22.81 23.03 23.19 22.79 22.76 22.78 22.54 22.86
35.76 35.30 34.88 34.53 34.50 34.93 35.47 35.87 35.61 35.45 35.53 35.63 35.66 35.81 36.06 36.40 36.15 35.51 35.07 35.32 35.39 34.91 34.35 33.92 33.63 33.24 32.79 32.13 31.87 31.48 31.24 31.26 31.10 30.99 30.79 30.53 30.10 29.55 29.17 28.84 28.67 28.47 28.25 27.95 28.08 27.82 27.43 27.36 27.06 26.96 26.86 26.59 25.96 25.68 25.40 25.10 24.37 23.77 23.15 22.82 22.50 22.45 22.51 22.45 22.17 22.10 21.95 21.87 22.28
35.46 35.03 34.68 34.28 34.59 35.12 35.55 35.38 35.13 35.08 35.32 35.59 35.74 36.01 36.16 36.23 35.59 35.23 35.20 35.63 35.12 34.40 33.70 33.08 32.90 32.71 32.58 32.50 32.15 31.85 31.66 31.36 31.08 30.83 30.59 30.11 29.43 28.83 28.28 27.92 28.00 27.91 27.92 28.10 27.92 27.45 26.98 27.00 26.97 26.84 26.62 26.02 25.31 24.99 24.81 24.48 23.92 23.34 22.80 22.44 22.24 22.21 22.15 22.15 21.72 21.53 21.43 21.45 21.87
35.12 34.76 34.45 34.30 34.72 35.01 35.15 34.84 34.74 34.88 35.30 35.69 36.11 36.29 36.33 35.97 35.20 35.02 35.35 35.70 34.88 34.05 33.43 32.71 32.24 32.34 32.53 32.61 32.30 32.06 31.73 31.33 31.17 31.00 30.59 29.78 28.82 28.27 27.83 27.64 27.56 27.46 27.51 27.87 27.86 27.25 26.70 26.53 26.44 26.41 26.10 25.37 24.72 24.39 24.20 23.92 23.34 22.86 22.46 22.12 22.17 22.12 22.02 22.01 21.55 21.39 21.39 21.51 21.54
34.71 34.56 34.41 34.44 34.56 34.62 34.61 34.54 34.98 35.35 35.78 36.36 36.54 36.43 36.27 36.22 35.18 35.11 35.33 35.40 34.52 33.85 33.32 32.85 32.53 32.46 32.59 32.87 32.57 32.22 31.86 31.53 31.34 31.09 30.71 29.80 28.70 28.19 27.86 27.73 27.51 27.40 27.35 27.35 27.51 27.23 26.76 26.24 26.19 26.04 25.57 24.87 24.29 23.90 23.67 23.41 22.87 22.52 22.20 22.12 22.12 21.91 21.82 21.66 21.37 21.19 21.19 21.19 21.09
34.58 34.48 34.45 34.55 34.45 34.52 34.72 35.12 35.93 36.36 36.56 37.09 36.51 36.14 36.03 36.18 35.58 35.42 35.20 34.93 34.26 33.86 33.49 33.19 32.80 32.56 32.44 32.64 32.60 32.37 31.93 31.68 31.51 31.12 30.63 29.96 29.03 28.54 28.35 28.21 28.29 28.08 27.62 27.16 26.88 26.79 26.66 26.31 26.19 25.84 25.41 24.59 23.89 23.37 23.08 22.98 22.51 22.13 21.97 21.88 21.67 21.62 21.60 21.61 21.26 20.94 20.79 20.88 20.83
34.77 34.67 34.61 34.76 34.76 35.00 35.47 36.11 36.75 37.12 37.30 36.94 36.00 35.75 35.96 36.21 35.92 35.51 35.05 34.68 34.44 34.12 33.82 33.55 32.95 32.70 32.64 32.60 32.35 32.16 31.89 31.61 31.20 30.84 30.54 29.96 29.49 29.10 28.94 29.10 29.34 28.83 28.08 27.24 26.42 25.93 25.93 26.67 26.13 25.65 25.14 24.49 23.72 23.16 22.76 22.46 22.08 21.79 21.63 21.50 21.38 21.34 21.36 21.85 21.13 20.68 20.45 20.66 20.76
35.23 34.98 35.04 35.09 35.44 35.94 36.50 36.97 37.15 37.18 36.90 36.20 35.71 35.69 35.98 36.23 35.90 35.56 35.05 34.64 34.57 34.45 34.27 33.79 33.01 32.94 33.01 33.07 32.26 31.82 31.52 31.39 31.12 30.63 30.12 29.72 29.49 29.27 29.24 29.80 29.80 29.08 28.00 27.18 26.34 25.75 25.73 26.65 26.07 25.35 24.58 23.98 23.45 22.86 22.44 21.96 21.62 21.38 21.28 21.21 21.19 21.01 21.02 21.12 20.48 20.11 20.05 20.28 20.74
35.68 35.52 35.51 35.82 36.31 36.90 37.26 37.40 37.26 36.82 36.24 35.69 35.67 35.70 35.83 35.97 35.92 35.75 35.25 34.59 34.44 34.64 34.67 34.03 33.30 33.04 32.96 32.74 32.01 31.35 31.00 31.00 30.95 30.45 29.81 29.33 29.04 28.99 29.23 29.85 29.71 28.87 27.84 26.83 26.06 25.83 26.13 26.89 25.99 25.24 24.41 23.58 22.91 22.32 21.78 21.22 20.79 20.78 20.72 20.76 20.73 20.59 20.39 20.10 19.66 19.53 19.76 20.13 20.55
36.28 36.27 36.38 36.68 37.04 37.47 37.71 37.68 37.15 36.57 36.05 35.72 35.82 35.81 35.77 35.68 35.79 35.69 35.24 34.59 34.46 34.63 34.55 34.10 33.45 33.04 32.59 32.02 31.57 30.92 30.36 30.06 30.44 30.23 29.69 28.99 28.85 28.92 29.14 29.63 29.63 28.64 27.35 26.42 26.14 26.30 26.63 26.68 25.83 25.06 24.21 23.43 22.69 21.86 21.18 20.49 20.13 20.05 19.95 19.85 19.94 19.86 19.77 19.37 19.14 19.13 19.36 19.82 20.38
36.75 37.05 37.23 37.48 37.61 37.85 37.96 37.62 37.01 36.57 36.12 35.97 36.01 35.82 35.66 35.47 35.53 35.45 35.31 34.75 34.49 34.28 34.10 33.78 33.40 32.88 32.28 31.60 31.33 30.91 30.29 29.29 30.02 30.12 29.77 29.13 29.09 29.17 29.36 29.58 29.21 27.82 26.49 26.03 26.44 26.74 26.80 26.24 25.45 24.60 23.73 23.02 22.28 21.45 20.70 20.03 19.67 19.40 19.18 18.90 18.93 18.89 18.93 18.76 18.83 18.96 19.26 19.85 20.34
36.86 37.37 37.76 37.97 38.17 38.25 37.98 37.34 36.83 36.45 36.26 36.08 35.97 35.86 35.55 35.47 35.35 35.29 35.10 34.65 34.31 34.07 33.77 33.37 32.86 32.45 32.04 31.49 31.41 31.10 30.46 29.43 30.01 30.12 29.96 29.55 29.60 29.60 29.41 29.10 28.34 27.10 26.21 26.21 26.43 26.60 26.29 25.55 24.68 23.82 22.94 22.10 21.48 20.91 20.61 20.20 19.42 18.93 18.50 18.18 18.04 18.03 18.08 18.16 18.42 18.76 19.26 19.77 20.15
37.01 37.65 38.18 38.42 38.50 38.07 37.46 36.97 36.56 36.41 36.30 36.19 36.07 35.88 35.69 35.64 35.36 35.06 34.65 34.18 33.98 33.75 33.50 32.75 32.16 31.91 31.72 31.40 31.59 31.38 30.96 30.02 30.04 29.86 29.73 29.64 29.76 29.52 28.84 27.96 27.44 27.05 26.69 26.41 26.16 25.79 25.21 24.44 23.40 22.54 21.76 21.13 20.63 20.47 20.30 20.37 19.66 18.88 18.18 17.89 17.67 17.66 17.77 17.97 18.22 18.56 18.95 19.65 20.36
37.36 38.03 38.60 38.96 38.61 38.08 37.46 36.81 36.59 36.48 36.33 36.29 36.21 36.09 36.07 35.99 35.36 34.78 34.21 33.65 33.29 33.01 32.59 31.97 31.79 31.65 31.57 31.43 31.72 31.80 31.54 30.90 30.53 30.07 29.61 29.25 29.15 28.64 27.81 26.92 26.94 26.84 26.65 26.17 26.58 26.57 25.77 24.24 22.51 21.55 20.95 20.60 20.20 19.93 19.72 19.64 19.08 18.65 18.36 18.06 17.95 17.73 17.63 17.82 18.04 18.64 19.27 19.47 20.29
37.65 38.19 38.57 38.77 38.53 37.98 37.31 36.66 36.70 36.66 36.59 36.51 36.34 36.17 36.08 35.92 35.30 34.66 33.97 33.22 32.50 32.14 31.94 31.85 31.76 31.81 31.79 31.60 31.71 31.68 31.51 31.18 30.90 30.68 30.19 29.75 29.07 28.28 27.34 26.63 26.83 27.15 27.41 27.80 30.51 30.78 29.30 26.71 24.55 22.59 20.86 20.12 19.90 19.81 19.61 19.39 18.91 18.54 18.41 18.56 18.56 18.13 17.73 17.82 18.08 18.65 19.18 19.42 19.86
37.70 38.04 38.39 38.65 38.47 37.83 37.19 36.89 36.81 36.74 36.62 36.49 36.23 36.10 36.06 35.79 35.06 34.46 33.95 33.16 32.44 32.16 32.15 32.12 31.96 31.89 31.85 31.71 31.39 31.23 30.97 30.64 30.65 30.65 30.65 30.49 29.67 28.82 27.84 26.94 27.10 27.78 29.09 31.34 32.85 32.73 31.75 30.65 28.44 25.01 21.56 19.53 19.43 19.42 19.36 18.93 18.75 18.57 18.37 18.19 18.26 17.94 17.66 17.73 18.06 18.67 19.29 19.98 19.86
37.91 38.25 38.48 38.78 38.40 37.91 37.34 36.97 36.74 36.65 36.56 36.39 36.18 36.18 36.06 35.31 34.52 34.18 33.90 33.34 32.74 32.63 32.49 32.47 32.13 31.83 31.55 31.26 31.21 31.10 30.79 30.60 30.45 30.47 30.54 30.54 30.10 28.79 27.58 26.97 27.15 28.24 30.20 33.28 33.72 33.43 32.83 32.16 30.79 27.95 24.17 20.14 19.47 19.19 18.92 18.24 18.22 18.25 18.01 17.36 17.01 16.94 17.23 17.68 18.06 18.57 19.17 19.78 19.59
38.29 38.59 38.67 38.74 38.44 37.98 37.38 36.74 36.73 36.65 36.60 36.59 36.62 36.31 35.71 34.74 34.44 34.20 33.90 33.47 33.04 32.70 32.39 32.14 31.74 31.30 31.05 30.92 30.97 30.90 30.90 30.71 30.40 30.15 30.01 29.89 29.00 27.62 26.38 26.11 26.42 28.45 31.27 34.25 34.06 33.73 33.34 32.87 31.99 30.10 26.97 22.17 19.79 18.93 18.83 18.13 18.02 17.35 16.71 16.58 16.30 16.45 16.90 17.47 17.94 18.40 18.71 18.93 18.82
38.70 38.78 38.74 38.82 38.67 38.06 37.34 36.73 36.88 36.91 36.90 36.90 36.55 35.98 35.39 34.89 34.68 34.45 34.03 33.55 33.09 32.55 32.14 31.70 31.13 31.00 30.90 30.94 30.70 30.56 30.47 30.27 29.80 29.48 29.07 28.61 27.09 25.93 25.43 25.67 26.36 28.92 32.10 34.61 34.02 33.68 33.42 32.99 32.32 31.29 29.35 26.21 21.03 18.46 17.58 17.42 17.10 16.75 16.29 16.00 16.16 16.45 16.77 17.30 17.65 17.85 18.03 17.97 17.89
38.70 38.70 38.74 38.90 38.48 37.94 37.34 36.96 36.99 37.10 37.13 36.93 36.24 35.79 35.44 34.97 34.70 34.43 34.00 33.55 33.17 32.70 32.16 31.65 31.43 31.37 31.37 31.23 30.78 30.40 30.05 29.74 29.12 28.80 28.30 27.38 26.10 25.51 25.53 26.07 26.86 29.32 32.23 34.27 33.92 33.56 33.15 32.77 32.32 31.78 30.64 28.46 22.67 18.75 16.70 16.42 16.14 16.20 16.32 16.23 16.11 16.35 16.67 17.11 17.41 17.47 17.47 17.31 17.20
38.63 38.63 38.59 38.44 37.90 37.45 37.11 36.60 36.82 37.04 37.06 36.66 36.16 35.77 35.45 34.94 34.62 34.23 33.96 33.72 33.37 32.78 32.20 32.13 32.15 31.92 31.57 31.03 30.48 30.19 29.97 29.66 28.87 28.27 27.55 26.57 26.15 25.88 25.95 26.31 26.61 29.04 32.01 34.06 33.75 33.42 33.07 32.61 32.22 31.88 31.07 29.67 23.90 19.32 16.53 15.98 15.73 15.76 15.89 16.10 16.20 16.41 16.67 16.87 17.09 17.21 17.25 17.12 16.85
38.47 38.36 38.25 37.75 37.18 36.76 36.37 35.92 36.40 36.87 37.05 36.67 36.27 35.98 35.60 35.20 34.61 34.36 34.05 33.91 33.62 33.19 32.80 32.58 32.49 32.27 31.74 30.87 30.14 29.91 29.85 29.46 28.81 27.87 27.02 26.30 26.29 26.08 26.09 26.59 26.82 28.67 31.39 33.89 33.51 33.37 33.09 32.62 32.20 31.78 31.35 30.48 25.49 20.54 16.95 16.02 15.58 15.52 15.54 15.64 16.09 16.42 16.71 17.13 17.10 17.30 17.37 17.21 16.67
38.13 37.94 37.56 36.99 36.34 35.98 35.64 35.46 36.07 36.77 37.07 36.63 36.39 36.13 35.82 35.37 34.99 34.85 34.78 34.26 33.93 33.73 33.47 33.02 32.78 32.43 31.95 31.36 30.50 30.17 29.83 29.17 28.36 27.31 26.46 26.00 26.43 26.36 26.34 26.74 26.91 28.96 31.58 33.69 33.46 33.26 33.07 32.65 32.16 31.81 31.50 31.08 26.08 20.65 16.60 15.76 15.21 15.00 14.82 14.95 15.52 16.14 16.62 17.10 17.29 17.44 17.24 16.94 16.25
37.53 37.23 36.65 35.95 35.66 35.38 35.34 35.45 36.27 36.79 36.98 36.68 36.57 36.35 36.05 35.50 35.46 35.35 35.06 34.39 33.87 33.58 33.34 33.14 33.09 32.68 32.17 31.66 31.13 30.67 29.87 28.54 27.64 26.75 25.93 25.39 26.47 26.74 26.57 26.36 27.04 29.65 32.35 33.40 33.36 33.28 33.00 32.61 32.16 31.79 31.47 31.34 25.27 19.89 16.27 15.44 14.77 14.56 14.73 15.04 15.37 15.89 16.51 17.05 17.20 17.11 16.70 16.26 15.72
36.74 36.35 35.91 35.34 35.52 35.67 35.81 36.15 36.60 36.80 36.91 36.69 36.58 36.24 35.84 35.37 35.31 35.34 35.02 34.25 33.41 33.02 32.85 32.49 32.35 32.05 31.43 30.90 30.77 30.52 29.86 28.59 27.52 26.52 25.73 25.35 26.36 26.68 26.38 25.63 26.44 29.61 32.69 33.33 33.21 33.12 32.97 32.49 32.07 31.82 31.21 29.63 22.91 18.20 15.52 14.98 14.66 14.66 14.96 15.44 15.94 16.47 16.85 17.01 16.80 16.54 16.25 15.93 15.86
36.19 35.77 35.39 35.40 36.03 36.45 36.61 36.66 36.96 36.85 36.58 36.08 35.83 35.50 35.20 34.85 34.69 34.69 34.37 33.55 33.05 32.93 32.73 32.16 31.80 31.42 31.07 30.71 30.00 29.67 29.42 29.01 28.09 26.94 25.96 25.46 26.24 26.30 25.82 24.96 25.89 29.18 32.47 33.28 33.24 33.11 32.86 32.54 32.19 31.92 30.65 26.88 20.09 16.35 14.66 14.22 14.38 14.66 15.09 15.61 16.32 16.85 17.21 17.34 17.24 16.80 16.42 15.86 15.98
35.89 35.54 35.50 35.89 36.26 36.31 36.33 36.55 36.57 36.29 35.86 35.32 35.03 34.72 34.47 34.34 34.22 33.93 33.56 32.92 33.24 33.19 32.83 32.37 31.87 31.59 31.32 30.96 30.16 29.37 28.96 29.23 28.61 27.33 26.10 25.48 26.07 26.02 25.48 24.71 25.60 28.30 31.38 33.14 33.16 33.02 32.85 32.44 32.20 31.74 29.54 23.79 17.83 15.19 14.31 13.88 14.01 14.38 14.91 15.62 16.00 16.22 16.41 16.50 16.56 16.51 16.30 15.87 16.75
35.58 35.58 35.68 35.92 35.69 35.81 36.03 36.52 36.34 36.02 35.56 35.12 34.77 34.15 33.72 33.59 33.76 33.36 32.92 32.47 33.31 33.31 32.80 32.15 31.81 31.55 31.26 31.00 30.54 29.59 28.76 28.49 28.46 27.61 26.43 25.62 26.07 25.99 25.56 24.85 25.43 27.47 30.14 32.73 32.99 33.05 32.80 32.47 32.25 31.36 28.30 21.47 16.95 15.02 14.59 14.09 14.09 14.57 15.03 15.27 15.29 15.34 15.30 15.13 15.01 15.20 15.53 15.88 19.80
35.24 35.45 35.61 35.83 35.99 36.39 36.91 37.00 36.58 36.19 35.84 35.29 34.34 33.64 33.10 33.10 33.09 32.99 32.48 31.61 32.74 32.95 32.54 31.80 31.57 31.12 30.81 30.60 30.19 29.38 28.46 27.86 27.76 27.48 27.08 26.35 26.60 26.79 26.52 25.53 25.49 26.88 29.33 32.26 32.90 32.97 32.74 32.56 32.22 31.56 28.91 22.15 17.06 15.25 14.93 14.61 14.52 14.49 14.56 14.55 14.66 14.66 14.42 14.04 14.04 14.30 14.81 15.43 22.77
34.87 35.39 36.07 36.63 37.10 37.34 37.34 37.00 36.68 36.11 35.45 34.58 33.87 33.22 32.83 32.59 32.36 32.43 32.17 30.45 31.41 31.87 31.92 31.63 31.50 30.83 30.08 29.49 29.36 28.90 28.23 27.38 26.89 26.89 27.05 26.96 27.32 28.46 28.50 25.82 25.60 26.51 28.45 31.69 32.78 32.93 32.71 32.56 32.19 31.85 29.54 22.73 17.02 14.95 14.84 14.82 14.80 14.63 14.31 14.00 14.28 14.46 14.31 13.50 13.31 13.57 14.12 14.40 19.57
35.49 36.32 37.12 37.44 37.21 36.99 36.74 36.67 36.26 35.56 34.58 33.47 33.01 32.45 31.86 31.36 31.17 31.24 31.02 30.02 30.33 30.76 30.97 31.14 30.92 30.23 29.24 28.40 28.38 28.24 28.01 27.54 26.74 26.36 26.27 26.49 26.94 28.82 29.27 25.62 25.56 25.95 27.47 30.58 32.43 32.93 32.71 32.68 32.36 32.21 29.98 23.41 17.02 14.78 14.78 14.96 15.20 15.05 14.64 14.12 13.86 14.06 14.15 13.58 13.03 13.08 13.52 13.96 15.02
MSLP
1022.52 1022.64 1022.76 1022.92 1023.12 1023.32 1023.56 1023.76 1023.92 1024.04 1024.20 1024.32 1024.52 1024.68 1024.80 1024.96 1025.16 1025.28 1025.32 1025.44 1025.48 1025.60 1025.72 1025.76 1025.84 1025.92 1026.00 1026.00 1026.00 1026.04 1026.16 1026.20 1026.28 1026.32 1026.36 1026.40 1026.48 1026.48 1026.40 1026.36 1026.32 1026.32 1026.32 1026.32 1026.32 1026.36 1026.40 1026.44 1026.48 1026.52 1026.60 1026.68 1026.80 1026.88 1026.92 1026.92 1027.00 1027.04 1027.04 1027.12 1027.16 1027.20 1027.20 1027.20 1027.24 1027.28 1027.32 1027.32 1027.32
1022.68 1022.76 1022.92 1023.04 1023.24 1023.40 1023.60 1023.88 1024.00 1024.12 1024.24 1024.36 1024.48 1024.68 1024.84 1024.96 1025.16 1025.32 1025.40 1025.48 1025.48 1025.60 1025.68 1025.80 1025.88 1026.00 1026.04 1026.04 1026.04 1026.08 1026.20 1026.28 1026.32 1026.40 1026.44 1026.48 1026.48 1026.48 1026.48 1026.44 1026.40 1026.40 1026.40 1026.44 1026.44 1026.44 1026.48 1026.48 1026.48 1026.56 1026.64 1026.76 1026.84 1026.92 1026.96 1027.04 1027.00 1027.04 1027.12 1027.20 1027.20 1027.20 1027.20 1027.28 1027.32 1027.32 1027.32 1027.36 1027.40
1022.76 1022.92 1023.04 1023.20 1023.32 1023.52 1023.72 1023.92 1024.08 1024.24 1024.36 1024.48 1024.56 1024.68 1024.80 1024.96 1025.12 1025.28 1025.40 1025.48 1025.52 1025.60 1025.68 1025.80 1025.88 1025.96 1026.04 1026.12 1026.16 1026.20 1026.24 1026.32 1026.36 1026.44 1026.48 1026.52 1026.48 1026.48 1026.48 1026.48 1026.44 1026.44 1026.48 1026.48 1026.48 1026.48 1026.48 1026.52 1026.52 1026.60 1026.68 1026.80 1026.92 1027.04 1027.04 1027.04 1027.04 1027.08 1027.20 1027.24 1027.24 1027.24 1027.24 1027.32 1027.36 1027.36 1027.40 1027.44 1027.48
1022.84 1023.00 1023.16 1023.32 1023.44 1023.60 1023.76 1023.96 1024.16 1024.32 1024.44 1024.56 1024.64 1024.76 1024.88 1025.04 1025.16 1025.28 1025.36 1025.48 1025.52 1025.60 1025.68 1025.80 1025.92 1026.00 1026.04 1026.08 1026.16 1026.24 1026.32 1026.32 1026.36 1026.44 1026.48 1026.52 1026.52 1026.48 1026.48 1026.48 1026.48 1026.48 1026.48 1026.52 1026.56 1026.60 1026.60 1026.60 1026.60 1026.68 1026.76 1026.92 1027.00 1027.04 1027.08 1027.12 1027.12 1027.16 1027.24 1027.32 1027.32 1027.32 1027.32 1027.40 1027.40 1027.40 1027.44 1027.48 1027.52
1022.92 1023.04 1023.20 1023.32 1023.48 1023.60 1023.80 1023.96 1024.20 1024.32 1024.48 1024.56 1024.68 1024.84 1024.96 1025.04 1025.16 1025.24 1025.32 1025.44 1025.52 1025.60 1025.72 1025.80 1025.88 1025.96 1026.04 1026.04 1026.16 1026.24 1026.32 1026.40 1026.44 1026.44 1026.48 1026.52 1026.52 1026.52 1026.48 1026.48 1026.48 1026.52 1026.52 1026.56 1026.60 1026.64 1026.72 1026.76 1026.76 1026.80 1026.92 1026.96 1027.04 1027.12 1027.16 1027.16 1027.20 1027.20 1027.32 1027.32 1027.36 1027.36 1027.40 1027.44 1027.44 1027.44 1027.48 1027.52 1027.56
1023.04 1023.16 1023.28 1023.40 1023.56 1023.68 1023.84 1024.00 1024.16 1024.32 1024.48 1024.52 1024.68 1024.88 1025.00 1025.04 1025.08 1025.20 1025.32 1025.48 1025.60 1025.68 1025.76 1025.80 1025.88 1025.96 1026.04 1026.04 1026.12 1026.24 1026.32 1026.40 1026.48 1026.48 1026.52 1026.56 1026.56 1026.52 1026.48 1026.48 1026.48 1026.48 1026.56 1026.60 1026.64 1026.68 1026.76 1026.76 1026.84 1026.88 1026.92 1026.96 1027.04 1027.12 1027.16 1027.12 1027.20 1027.28 1027.36 1027.40 1027.40 1027.40 1027.44 1027.48 1027.48 1027.48 1027.48 1027.56 1027.60
1023.04 1023.20 1023.32 1023.48 1023.60 1023.72 1023.88 1024.04 1024.20 1024.32 1024.40 1024.48 1024.68 1024.88 1025.04 1025.08 1025.12 1025.24 1025.36 1025.48 1025.60 1025.68 1025.76 1025.80 1025.88 1025.88 1025.96 1026.04 1026.12 1026.24 1026.32 1026.44 1026.52 1026.56 1026.56 1026.60 1026.60 1026.60 1026.56 1026.52 1026.52 1026.52 1026.60 1026.64 1026.72 1026.76 1026.76 1026.76 1026.80 1026.92 1026.96 1027.00 1027.08 1027.16 1027.16 1027.20 1027.20 1027.32 1027.44 1027.48 1027.48 1027.48 1027.48 1027.52 1027.48 1027.48 1027.56 1027.60 1027.64
1023.12 1023.24 1023.36 1023.48 1023.60 1023.72 1023.88 1024.04 1024.16 1024.28 1024.40 1024.52 1024.68 1024.84 1024.96 1025.04 1025.16 1025.28 1025.36 1025.48 1025.56 1025.64 1025.76 1025.80 1025.88 1025.88 1025.96 1026.04 1026.16 1026.28 1026.36 1026.48 1026.56 1026.60 1026.60 1026.60 1026.60 1026.60 1026.60 1026.60 1026.60 1026.60 1026.68 1026.72 1026.76 1026.76 1026.76 1026.76 1026.76 1026.92 1027.00 1027.04 1027.08 1027.16 1027.20 1027.20 1027.24 1027.36 1027.52 1027.60 1027.56 1027.52 1027.48 1027.48 1027.48 1027.48 1027.56 1027.60 1027.64
1023.20 1023.32 1023.36 1023.48 1023.60 1023.68 1023.80 1023.96 1024.04 1024.20 1024.40 1024.56 1024.68 1024.76 1024.88 1025.00 1025.12 1025.20 1025.32 1025.48 1025.56 1025.60 1025.72 1025.76 1025.84 1025.88 1025.96 1026.04 1026.20 1026.32 1026.40 1026.48 1026.52 1026.60 1026.60 1026.60 1026.64 1026.68 1026.68 1026.64 1026.68 1026.72 1026.76 1026.76 1026.76 1026.76 1026.76 1026.76 1026.84 1026.92 1027.00 1027.04 1027.12 1027.20 1027.20 1027.20 1027.28 1027.44 1027.56 1027.60 1027.60 1027.56 1027.52 1027.48 1027.52 1027.56 1027.60 1027.64 1027.68
1023.20 1023.32 1023.40 1023.48 1023.60 1023.68 1023.76 1023.92 1024.00 1024.16 1024.32 1024.52 1024.64 1024.72 1024.80 1024.92 1025.04 1025.20 1025.32 1025.44 1025.52 1025.60 1025.68 1025.76 1025.80 1025.88 1026.00 1026.08 1026.20 1026.28 1026.32 1026.40 1026.48 1026.52 1026.56 1026.60 1026.68 1026.72 1026.72 1026.72 1026.76 1026.76 1026.80 1026.84 1026.84 1026.84 1026.84 1026.80 1026.92 1027.00 1027.04 1027.08 1027.20 1027.24 1027.20 1027.16 1027.28 1027.48 1027.60 1027.60 1027.60 1027.60 1027.60 1027.56 1027.56 1027.60 1027.60 1027.64 1027.72
1023.12 1023.20 1023.32 1023.40 1023.52 1023.64 1023.76 1023.88 1024.04 1024.12 1024.28 1024.48 1024.60 1024.72 1024.80 1024.92 1025.04 1025.12 1025.24 1025.32 1025.48 1025.60 1025.72 1025.76 1025.80 1025.88 1026.00 1026.12 1026.20 1026.24 1026.28 1026.32 1026.40 1026.44 1026.48 1026.60 1026.64 1026.72 1026.76 1026.76 1026.80 1026.80 1026.80 1026.84 1026.88 1026.92 1026.92 1026.88 1026.96 1027.08 1027.16 1027.20 1027.20 1027.20 1027.20 1027.20 1027.32 1027.48 1027.60 1027.60 1027.60 1027.60 1027.60 1027.64 1027.64 1027.60 1027.64 1027.68 1027.68
1023.04 1023.16 1023.20 1023.32 1023.44 1023.56 1023.68 1023.88 1024.04 1024.16 1024.32 1024.44 1024.56 1024.68 1024.76 1024.84 1024.96 1025.08 1025.20 1025.32 1025.48 1025.60 1025.72 1025.76 1025.80 1025.88 1026.00 1026.04 1026.12 1026.20 1026.20 1026.28 1026.32 1026.36 1026.48 1026.56 1026.60 1026.64 1026.72 1026.76 1026.80 1026.80 1026.80 1026.84 1026.92 1026.92 1026.96 1026.92 1027.04 1027.12 1027.20 1027.20 1027.20 1027.20 1027.20 1027.24 1027.32 1027.48 1027.60 1027.60 1027.60 1027.64 1027.68 1027.72 1027.68 1027.68 1027.68 1027.68 1027.64
1022.92 1023.04 1023.20 1023.28 1023.36 1023.48 1023.60 1023.80 1024.00 1024.16 1024.28 1024.40 1024.48 1024.60 1024.68 1024.76 1024.88 1025.00 1025.16 1025.32 1025.48 1025.60 1025.72 1025.76 1025.76 1025.80 1025.88 1025.96 1026.04 1026.08 1026.16 1026.20 1026.24 1026.32 1026.44 1026.52 1026.60 1026.64 1026.68 1026.76 1026.76 1026.76 1026.76 1026.80 1026.88 1026.92 1026.96 1026.92 1027.00 1027.08 1027.20 1027.28 1027.28 1027.20 1027.20 1027.24 1027.32 1027.48 1027.60 1027.64 1027.64 1027.68 1027.76 1027.76 1027.72 1027.68 1027.68 1027.64 1027.60
1022.84 1023.00 1023.12 1023.20 1023.32 1023.44 1023.60 1023.76 1023.92 1024.04 1024.20 1024.32 1024.40 1024.48 1024.60 1024.72 1024.80 1024.92 1025.08 1025.24 1025.44 1025.56 1025.68 1025.76 1025.76 1025.76 1025.80 1025.88 1025.92 1026.00 1026.04 1026.12 1026.20 1026.24 1026.32 1026.44 1026.52 1026.60 1026.64 1026.68 1026.72 1026.76 1026.76 1026.80 1026.84 1026.92 1026.96 1026.96 1027.00 1027.04 1027.20 1027.28 1027.28 1027.28 1027.24 1027.28 1027.36 1027.48 1027.60 1027.68 1027.72 1027.76 1027.76 1027.72 1027.68 1027.64 1027.64 1027.60 1027.60
1022.80 1022.92 1023.04 1023.16 1023.28 1023.40 1023.56 1023.72 1023.88 1023.96 1024.08 1024.20 1024.32 1024.44 1024.52 1024.68 1024.76 1024.92 1025.04 1025.20 1025.36 1025.52 1025.60 1025.68 1025.76 1025.76 1025.76 1025.76 1025.80 1025.88 1025.96 1026.04 1026.12 1026.20 1026.32 1026.40 1026.48 1026.52 1026.60 1026.64 1026.68 1026.72 1026.76 1026.76 1026.80 1026.88 1026.92 1026.92 1026.96 1027.00 1027.08 1027.20 1027.28 1027.28 1027.28 1027.32 1027.40 1027.48 1027.52 1027.60 1027.64 1027.68 1027.72 1027.68 1027.64 1027.64 1027.64 1027.64 1027.64
1022.72 1022.84 1023.00 1023.08 1023.24 1023.36 1023.48 1023.60 1023.76 1023.88 1024.00 1024.12 1024.24 1024.36 1024.52 1024.64 1024.76 1024.88 1025.00 1025.16 1025.32 1025.44 1025.52 1025.60 1025.64 1025.72 1025.72 1025.72 1025.76 1025.80 1025.88 1026.00 1026.04 1026.16 1026.28 1026.36 1026.40 1026.44 1026.48 1026.60 1026.60 1026.60 1026.64 1026.68 1026.76 1026.80 1026.84 1026.80 1026.84 1026.92 1027.00 1027.12 1027.24 1027.28 1027.32 1027.32 1027.40 1027.48 1027.48 1027.52 1027.56 1027.56 1027.60 1027.60 1027.60 1027.60 1027.60 1027.60 1027.60
1022.64 1022.76 1022.92 1023.00 1023.20 1023.32 1023.44 1023.56 1023.64 1023.76 1023.88 1024.04 1024.20 1024.32 1024.48 1024.60 1024.72 1024.80 1024.92 1025.04 1025.20 1025.32 1025.44 1025.48 1025.52 1025.60 1025.68 1025.72 1025.72 1025.76 1025.84 1025.92 1026.04 1026.12 1026.24 1026.32 1026.32 1026.36 1026.40 1026.48 1026.48 1026.48 1026.52 1026.60 1026.68 1026.76 1026.80 1026.80 1026.80 1026.84 1026.92 1027.04 1027.12 1027.20 1027.24 1027.32 1027.36 1027.40 1027.44 1027.48 1027.48 1027.48 1027.48 1027.48 1027.52 1027.56 1027.56 1027.52 1027.48
1022.56 1022.68 1022.80 1022.92 1023.04 1023.20 1023.32 1023.44 1023.56 1023.68 1023.84 1024.00 1024.16 1024.28 1024.36 1024.48 1024.60 1024.72 1024.80 1024.92 1025.04 1025.20 1025.28 1025.36 1025.44 1025.48 1025.56 1025.64 1025.68 1025.72 1025.76 1025.88 1026.00 1026.08 1026.16 1026.20 1026.24 1026.28 1026.28 1026.32 1026.32 1026.32 1026.40 1026.48 1026.56 1026.64 1026.72 1026.76 1026.80 1026.80 1026.84 1026.92 1027.04 1027.08 1027.20 1027.24 1027.32 1027.32 1027.36 1027.36 1027.40 1027.40 1027.40 1027.40 1027.48 1027.48 1027.48 1027.48 1027.36
1022.44 1022.60 1022.72 1022.84 1022.96 1023.04 1023.20 1023.32 1023.48 1023.60 1023.76 1023.88 1024.04 1024.12 1024.20 1024.32 1024.44 1024.56 1024.72 1024.80 1024.88 1024.96 1025.08 1025.24 1025.36 1025.40 1025.44 1025.48 1025.60 1025.68 1025.72 1025.76 1025.88 1026.00 1026.04 1026.08 1026.12 1026.16 1026.20 1026.20 1026.16 1026.20 1026.24 1026.32 1026.44 1026.52 1026.60 1026.64 1026.72 1026.76 1026.84 1026.92 1027.04 1027.08 1027.16 1027.20 1027.28 1027.32 1027.32 1027.32 1027.32 1027.32 1027.32 1027.32 1027.36 1027.40 1027.36 1027.32 1027.28
1022.28 1022.44 1022.60 1022.68 1022.76 1022.92 1023.04 1023.20 1023.32 1023.48 1023.60 1023.72 1023.84 1024.00 1024.08 1024.16 1024.24 1024.44 1024.60 1024.72 1024.76 1024.80 1024.92 1025.04 1025.20 1025.32 1025.32 1025.40 1025.48 1025.60 1025.64 1025.68 1025.76 1025.84 1025.92 1026.00 1026.04 1026.04 1026.04 1026.04 1026.04 1026.08 1026.16 1026.24 1026.32 1026.40 1026.48 1026.56 1026.60 1026.68 1026.76 1026.92 1027.00 1027.12 1027.20 1027.24 1027.32 1027.32 1027.32 1027.32 1027.32 1027.32 1027.32 1027.32 1027.32 1027.32 1027.28 1027.20 1027.12
1022.12 1022.24 1022.40 1022.52 1022.60 1022.76 1022.92 1023.08 1023.20 1023.32 1023.44 1023.56 1023.72 1023.84 1023.96 1024.04 1024.20 1024.32 1024.40 1024.48 1024.60 1024.68 1024.76 1024.92 1025.04 1025.16 1025.28 1025.32 1025.44 1025.48 1025.56 1025.60 1025.64 1025.76 1025.80 1025.88 1025.92 1025.88 1025.88 1025.88 1025.92 1026.04 1026.12 1026.20 1026.24 1026.32 1026.36 1026.48 1026.56 1026.64 1026.72 1026.84 1026.96 1027.08 1027.20 1027.24 1027.32 1027.32 1027.32 1027.32 1027.32 1027.32 1027.28 1027.28 1027.28 1027.20 1027.16 1027.08 1027.04
1021.96 1022.08 1022.24 1022.36 1022.48 1022.64 1022.80 1022.96 1023.08 1023.20 1023.32 1023.48 1023.60 1023.72 1023.84 1024.00 1024.08 1024.16 1024.20 1024.28 1024.44 1024.60 1024.68 1024.80 1024.88 1025.00 1025.08 1025.20 1025.28 1025.36 1025.44 1025.52 1025.60 1025.60 1025.68 1025.76 1025.76 1025.72 1025.72 1025.76 1025.88 1026.00 1026.04 1026.12 1026.20 1026.24 1026.32 1026.40 1026.48 1026.60 1026.68 1026.80 1026.96 1027.04 1027.16 1027.20 1027.32 1027.32 1027.32 1027.32 1027.32 1027.32 1027.28 1027.24 1027.20 1027.16 1027.08 1027.04 1026.96
1021.88 1022.00 1022.12 1022.28 1022.40 1022.56 1022.72 1022.88 1023.00 1023.12 1023.24 1023.40 1023.52 1023.64 1023.76 1023.88 1023.92 1024.00 1024.04 1024.20 1024.36 1024.48 1024.60 1024.72 1024.76 1024.84 1024.92 1024.96 1025.04 1025.20 1025.32 1025.48 1025.52 1025.56 1025.60 1025.60 1025.60 1025.60 1025.64 1025.72 1025.84 1025.92 1026.00 1026.04 1026.08 1026.20 1026.24 1026.36 1026.48 1026.56 1026.68 1026.80 1026.96 1027.04 1027.12 1027.20 1027.24 1027.32 1027.36 1027.36 1027.36 1027.32 1027.28 1027.20 1027.12 1027.08 1027.04 1026.92 1026.88
1021.76 1021.88 1022.04 1022.20 1022.36 1022.48 1022.60 1022.76 1022.92 1023.08 1023.20 1023.32 1023.44 1023.56 1023.64 1023.68 1023.76 1023.84 1023.96 1024.16 1024.32 1024.44 1024.52 1024.60 1024.68 1024.76 1024.76 1024.84 1024.92 1025.04 1025.20 1025.36 1025.48 1025.48 1025.52 1025.52 1025.52 1025.56 1025.60 1025.68 1025.76 1025.80 1025.88 1025.92 1025.96 1026.00 1026.08 1026.28 1026.44 1026.56 1026.64 1026.76 1026.92 1027.00 1027.04 1027.16 1027.24 1027.28 1027.32 1027.32 1027.32 1027.28 1027.24 1027.16 1027.04 1027.00 1026.96 1026.92 1026.80
1021.68 1021.84 1022.00 1022.16 1022.28 1022.40 1022.52 1022.68 1022.88 1023.00 1023.12 1023.24 1023.32 1023.40 1023.48 1023.56 1023.60 1023.76 1023.92 1024.12 1024.28 1024.36 1024.44 1024.52 1024.60 1024.64 1024.68 1024.76 1024.84 1024.92 1025.04 1025.20 1025.28 1025.36 1025.40 1025.40 1025.40 1025.48 1025.52 1025.60 1025.64 1025.68 1025.76 1025.84 1025.80 1025.80 1025.88 1026.08 1026.28 1026.48 1026.60 1026.72 1026.84 1026.96 1027.04 1027.08 1027.16 1027.20 1027.24 1027.28 1027.28 1027.28 1027.24 1027.20 1027.08 1027.00 1026.92 1026.88 1026.76
1021.60 1021.76 1021.92 1022.04 1022.20 1022.32 1022.48 1022.60 1022.76 1022.88 1023.00 1023.12 1023.20 1023.28 1023.32 1023.44 1023.52 1023.68 1023.88 1024.08 1024.20 1024.32 1024.36 1024.48 1024.48 1024.56 1024.60 1024.68 1024.76 1024.88 1024.96 1025.04 1025.08 1025.16 1025.20 1025.28 1025.32 1025.36 1025.44 1025.48 1025.60 1025.60 1025.68 1025.72 1025.72 1025.76 1025.88 1025.96 1026.12 1026.32 1026.48 1026.60 1026.76 1026.88 1026.96 1027.04 1027.08 1027.12 1027.20 1027.20 1027.24 1027.28 1027.28 1027.24 1027.12 1027.04 1026.92 1026.76 1026.76
1021.56 1021.76 1021.88 1021.96 1022.12 1022.24 1022.40 1022.52 1022.64 1022.76 1022.92 1023.00 1023.08 1023.16 1023.20 1023.32 1023.48 1023.64 1023.84 1024.04 1024.12 1024.20 1024.20 1024.32 1024.36 1024.48 1024.52 1024.60 1024.76 1024.84 1024.92 1024.92 1024.96 1025.00 1025.04 1025.08 1025.16 1025.28 1025.36 1025.40 1025.48 1025.56 1025.60 1025.60 1025.68 1025.76 1025.80 1025.92 1026.04 1026.20 1026.32 1026.48 1026.60 1026.76 1026.92 1026.96 1027.04 1027.04 1027.12 1027.16 1027.20 1027.24 1027.24 1027.24 1027.20 1027.08 1026.96 1026.84 1026.72
1021.52 1021.64 1021.76 1021.88 1022.04 1022.20 1022.32 1022.48 1022.60 1022.72 1022.80 1022.88 1022.96 1023.04 1023.12 1023.28 1023.48 1023.64 1023.84 1023.92 1024.04 1024.08 1024.16 1024.20 1024.28 1024.36 1024.48 1024.60 1024.68 1024.72 1024.76 1024.76 1024.84 1024.88 1024.92 1024.92 1025.04 1025.20 1025.28 1025.32 1025.44 1025.48 1025.48 1025.52 1025.60 1025.64 1025.72 1025.84 1025.92 1026.04 1026.20 1026.32 1026.48 1026.60 1026.72 1026.84 1026.92 1027.00 1027.08 1027.12 1027.16 1027.20 1027.20 1027.20 1027.16 1027.08 1027.00 1026.92 1026.76
1021.44 1021.60 1021.76 1021.88 1022.04 1022.16 1022.28 1022.40 1022.52 1022.60 1022.68 1022.72 1022.80 1022.92 1023.08 1023.28 1023.44 1023.60 1023.76 1023.84 1023.92 1024.04 1024.12 1024.20 1024.20 1024.32 1024.44 1024.52 1024.56 1024.56 1024.60 1024.60 1024.64 1024.76 1024.84 1024.92 1025.00 1025.08 1025.20 1025.28 1025.36 1025.40 1025.40 1025.40 1025.48 1025.52 1025.60 1025.76 1025.84 1025.92 1026.04 1026.20 1026.36 1026.48 1026.60 1026.72 1026.84 1026.92 1027.04 1027.04 1027.08 1027.12 1027.12 1027.12 1027.08 1027.04 1027.00 1026.92 1026.84
1021.32 1021.48 1021.68 1021.84 1021.96 1022.08 1022.20 1022.32 1022.40 1022.48 1022.56 1022.64 1022.76 1022.92 1023.12 1023.32 1023.48 1023.60 1023.68 1023.76 1023.84 1023.88 1023.92 1024.00 1024.12 1024.24 1024.32 1024.36 1024.40 1024.44 1024.48 1024.48 1024.52 1024.60 1024.68 1024.80 1024.96 1025.04 1025.12 1025.20 1025.24 1025.32 1025.32 1025.32 1025.40 1025.48 1025.56 1025.64 1025.76 1025.84 1025.92 1026.04 1026.20 1026.36 1026.48 1026.60 1026.76 1026.88 1026.92 1026.96 1027.00 1027.04 1027.04 1027.04 1027.00 1026.92 1026.92 1026.92 1026.88
1021.28 1021.44 1021.60 1021.76 1021.92 1022.04 1022.20 1022.28 1022.32 1022.40 1022.48 1022.64 1022.80 1023.00 1023.20 1023.36 1023.48 1023.60 1023.60 1023.68 1023.72 1023.76 1023.76 1023.88 1024.00 1024.12 1024.16 1024.16 1024.20 1024.24 1024.32 1024.32 1024.40 1024.48 1024.60 1024.68 1024.76 1024.92 1025.04 1025.12 1025.16 1025.20 1025.20 1025.28 1025.32 1025.36 1025.48 1025.56 1025.64 1025.72 1025.80 1025.96 1026.16 1026.32 1026.40 1026.52 1026.64 1026.76 1026.84 1026.92 1026.92 1026.92 1026.92 1026.88 1026.88 1026.84 1026.84 1026.84 1026.88
1021.28 1021.44 1021.60 1021.76 1021.92 1022.04 1022.16 1022.20 1022.32 1022.44 1022.56 1022.68 1022.84 1023.04 1023.24 1023.36 1023.48 1023.48 1023.52 1023.56 1023.60 1023.64 1023.76 1023.88 1023.92 1023.96 1024.00 1024.04 1024.04 1024.12 1024.16 1024.20 1024.28 1024.32 1024.40 1024.48 1024.60 1024.72 1024.88 1025.00 1025.04 1025.08 1025.12 1025.16 1025.20 1025.28 1025.36 1025.48 1025.56 1025.60 1025.72 1025.84 1026.04 1026.20 1026.32 1026.48 1026.60 1026.64 1026.72 1026.76 1026.76 1026.76 1026.76 1026.76 1026.76 1026.76 1026.76 1026.76 1026.80
1021.28 1021.48 1021.60 1021.80 1021.92 1022.04 1022.16 1022.24 1022.32 1022.48 1022.60 1022.72 1022.92 1023.04 1023.24 1023.32 1023.36 1023.40 1023.44 1023.48 1023.52 1023.60 1023.68 1023.76 1023.76 1023.84 1023.88 1023.88 1023.92 1023.92 1023.96 1024.04 1024.08 1024.12 1024.20 1024.28 1024.36 1024.52 1024.72 1024.84 1024.92 1024.92 1024.92 1024.96 1025.04 1025.16 1025.24 1025.32 1025.44 1025.52 1025.60 1025.72 1025.88 1026.12 1026.28 1026.36 1026.48 1026.60 1026.60 1026.68 1026.68 1026.60 1026.60 1026.60 1026.60 1026.60 1026.60 1026.64 1026.68
1021.28 1021.48 1021.68 1021.80 1021.96 1022.08 1022.20 1022.28 1022.32 1022.48 1022.60 1022.76 1023.00 1023.16 1023.24 1023.32 1023.32 1023.32 1023.36 1023.36 1023.40 1023.40 1023.48 1023.48 1023.48 1023.52 1023.52 1023.56 1023.64 1023.76 1023.80 1023.88 1023.92 1024.00 1024.04 1024.12 1024.20 1024.32 1024.52 1024.68 1024.76 1024.76 1024.76 1024.84 1024.92 1025.04 1025.12 1025.20 1025.32 1025.40 1025.48 1025.60 1025.84 1026.04 1026.20 1026.32 1026.48 1026.56 1026.60 1026.56 1026.52 1026.48 1026.48 1026.44 1026.44 1026.48 1026.48 1026.48 1026.52
1021.32 1021.48 1021.68 1021.80 1021.96 1022.04 1022.16 1022.24 1022.32 1022.48 1022.64 1022.88 1023.08 1023.20 1023.20 1023.20 1023.20 1023.20 1023.20 1023.20 1023.24 1023.28 1023.28 1023.28 1023.24 1023.28 1023.32 1023.36 1023.44 1023.52 1023.60 1023.68 1023.76 1023.84 1023.88 1024.00 1024.04 1024.20 1024.36 1024.48 1024.60 1024.60 1024.64 1024.76 1024.84 1024.92 1025.04 1025.12 1025.20 1025.32 1025.44 1025.60 1025.80 1026.00 1026.16 1026.28 1026.36 1026.48 1026.44 1026.40 1026.32 1026.32 1026.28 1026.28 1026.32 1026.32 1026.32 1026.36 1026.40
1021.32 1021.48 1021.68 1021.80 1021.92 1022.00 1022.08 1022.20 1022.32 1022.52 1022.76 1023.04 1023.20 1023.20 1023.20 1023.16 1023.12 1023.04 1023.04 1023.04 1023.12 1023.16 1023.20 1023.20 1023.16 1023.20 1023.24 1023.28 1023.32 1023.40 1023.48 1023.52 1023.60 1023.68 1023.76 1023.84 1023.92 1024.04 1024.20 1024.36 1024.48 1024.52 1024.56 1024.60 1024.72 1024.84 1024.92 1025.04 1025.12 1025.20 1025.32 1025.52 1025.76 1025.92 1026.04 1026.20 1026.32 1026.32 1026.24 1026.20 1026.20 1026.20 1026.16 1026.16 1026.16 1026.20 1026.20 1026.24 1026.24
1021.20 1021.40 1021.60 1021.72 1021.88 1021.96 1022.08 1022.20 1022.40 1022.68 1022.96 1023.20 1023.20 1023.20 1023.12 1023.08 1023.04 1022.96 1022.92 1022.92 1023.00 1023.04 1023.08 1023.04 1023.08 1023.12 1023.12 1023.16 1023.20 1023.20 1023.24 1023.24 1023.36 1023.52 1023.64 1023.72 1023.76 1023.88 1024.08 1024.28 1024.36 1024.40 1024.44 1024.48 1024.60 1024.72 1024.80 1024.92 1025.00 1025.08 1025.24 1025.44 1025.64 1025.84 1026.04 1026.16 1026.20 1026.16 1026.08 1026.08 1026.08 1026.04 1026.04 1026.04 1026.04 1026.04 1026.04 1026.08 1026.04
1021.16 1021.28 1021.48 1021.64 1021.84 1021.96 1022.04 1022.24 1022.52 1022.84 1023.04 1023.16 1023.08 1023.04 1022.92 1022.92 1022.84 1022.80 1022.76 1022.76 1022.84 1022.92 1022.96 1022.96 1023.00 1022.96 1022.96 1022.92 1022.96 1023.04 1023.04 1023.08 1023.20 1023.32 1023.48 1023.60 1023.60 1023.72 1023.88 1024.12 1024.20 1024.24 1024.28 1024.32 1024.44 1024.52 1024.64 1024.76 1024.84 1024.92 1025.04 1025.32 1025.52 1025.76 1025.88 1026.04 1026.04 1026.00 1025.96 1025.92 1025.92 1025.92 1025.92 1025.92 1025.96 1025.96 1025.96 1025.92 1025.84
1021.08 1021.20 1021.36 1021.52 1021.72 1021.84 1022.04 1022.32 1022.60 1022.80 1022.92 1022.96 1022.92 1022.84 1022.76 1022.72 1022.68 1022.60 1022.56 1022.56 1022.60 1022.68 1022.76 1022.84 1022.84 1022.76 1022.76 1022.76 1022.84 1022.92 1023.00 1023.04 1023.04 1023.12 1023.24 1023.36 1023.40 1023.44 1023.60 1023.84 1024.04 1024.08 1024.12 1024.16 1024.24 1024.36 1024.48 1024.60 1024.68 1024.76 1024.92 1025.20 1025.36 1025.56 1025.72 1025.80 1025.84 1025.88 1025.88 1025.84 1025.88 1025.88 1025.88 1025.88 1025.88 1025.88 1025.88 1025.80 1025.60
1021.04 1021.16 1021.24 1021.40 1021.56 1021.80 1022.08 1022.36 1022.60 1022.72 1022.76 1022.76 1022.72 1022.68 1022.60 1022.60 1022.52 1022.48 1022.48 1022.48 1022.48 1022.52 1022.60 1022.64 1022.64 1022.60 1022.60 1022.68 1022.76 1022.88 1022.96 1023.00 1023.00 1023.00 1023.04 1023.08 1023.16 1023.20 1023.32 1023.60 1023.76 1023.88 1023.96 1023.96 1024.08 1024.20 1024.32 1024.40 1024.48 1024.60 1024.76 1025.08 1025.20 1025.36 1025.48 1025.60 1025.64 1025.76 1025.76 1025.76 1025.80 1025.80 1025.80 1025.80 1025.80 1025.80 1025.80 1025.72 1025.56
1020.92 1021.04 1021.16 1021.36 1021.60 1021.88 1022.12 1022.32 1022.48 1022.56 1022.56 1022.56 1022.56 1022.52 1022.48 1022.44 1022.40 1022.36 1022.40 1022.44 1022.44 1022.44 1022.48 1022.48 1022.48 1022.52 1022.60 1022.68 1022.72 1022.80 1022.88 1022.92 1022.92 1022.92 1022.88 1022.92 1022.96 1023.04 1023.20 1023.36 1023.56 1023.72 1023.80 1023.84 1023.88 1024.04 1024.16 1024.20 1024.32 1024.36 1024.56 1024.92 1025.08 1025.24 1025.32 1025.40 1025.52 1025.64 1025.72 1025.68 1025.72 1025.72 1025.76 1025.76 1025.76 1025.76 1025.72 1025.64 1025.56
Wind_Speed
6 6 5 5 5 5 4 3 3 3 3 4 4 3 3 3 3 2 2 2 3 3 3 2 2 2 1 2 3 4 4 4 3 3 3 3 2 2 1 1 2 2 2 2 2 2 2 2 2 2 1 1 1 1 1 0 1 1 2 2 1 1 2 2 2 3 3 3 2
6 6 6 6 5 5 4 4 3 3 3 3 4 4 3 3 3 3 3 2 3 3 3 2 2 2 2 2 3 4 4 4 3 3 3 2 2 1 1 2 2 2 2 2 2 1 1 1 2 2 1 1 2 2 1 1 0 2 2 2 1 1 2 2 2 2 2 2 2
6 6 6 6 5 5 4 4 4 4 3 3 3 3 3 3 4 4 3 3 3 3 3 2 2 2 2 3 3 3 3 3 3 3 2 2 1 1 1 2 2 2 2 1 1 1 0 1 1 1 2 2 2 2 1 1 1 2 2 2 1 1 2 2 2 1 1 1 1
7 6 6 6 6 5 5 4 4 4 4 3 3 3 3 3 3 3 3 3 3 3 3 2 2 2 2 3 3 3 2 2 3 3 2 2 1 1 1 2 2 2 1 1 1 1 1 1 1 2 2 2 2 2 1 1 2 2 2 1 1 2 2 2 2 1 1 1 1
6 5 5 5 5 5 4 4 5 5 4 3 4 3 3 3 3 3 3 3 3 3 2 2 2 2 2 2 3 3 2 2 2 2 2 2 1 1 1 2 2 2 1 1 1 1 1 2 2 2 2 2 2 1 1 1 2 2 2 1 2 2 2 2 2 2 1 2 1
5 5 5 4 5 4 4 4 5 5 4 4 4 4 4 3 3 4 4 4 3 3 2 2 2 2 2 3 3 3 2 2 2 1 1 1 1 1 2 2 2 1 1 1 1 2 2 2 2 2 2 2 2 1 1 2 3 3 3 2 2 2 2 2 2 2 2 3 3
6 5 5 4 5 4 4 4 4 4 4 4 6 6 5 5 5 5 5 4 3 3 2 2 3 3 3 3 3 3 2 2 2 2 2 1 2 2 2 2 2 2 2 2 1 1 2 2 3 2 2 2 2 1 1 3 4 4 3 3 2 2 2 2 2 2 3 4 5
5 5 5 5 5 5 5 5 5 4 4 4 6 7 7 6 6 5 4 4 3 2 2 2 3 3 3 3 3 3 2 2 2 2 2 2 2 2 2 2 2 2 2 1 1 1 2 2 2 2 2 2 2 2 2 4 5 5 4 2 2 2 2 2 2 3 3 5 5
5 4 4 4 5 6 6 6 6 6 5 6 7 7 7 7 6 6 4 3 3 2 2 2 3 3 3 3 3 3 2 2 2 2 2 2 2 2 2 3 3 2 2 1 0 1 1 2 2 2 2 2 2 2 3 4 5 5 4 2 2 2 2 2 3 3 4 4 5
5 5 4 4 5 5 6 7 7 7 7 7 7 7 7 7 6 5 4 3 3 3 3 3 3 3 4 4 3 3 3 3 2 2 2 2 2 2 2 2 3 3 2 1 1 0 1 2 2 2 1 2 2 3 3 5 6 5 4 2 2 3 3 3 3 3 3 3 4
6 5 5 4 5 6 6 6 6 6 7 7 6 6 6 6 5 4 4 4 4 4 3 3 3 4 4 4 4 3 3 3 3 2 2 2 1 1 1 1 2 2 2 1 1 0 0 2 2 2 2 1 2 3 4 5 6 5 4 2 3 3 4 3 3 3 3 2 3
6 5 5 5 5 6 7 6 5 6 6 7 6 6 5 5 5 4 4 5 5 4 3 3 3 4 4 4 4 3 3 3 3 3 2 2 1 1 1 1 1 1 1 1 0 0 0 2 3 3 2 1 2 2 4 5 5 5 4 3 3 3 3 3 2 2 2 2 2
6 5 5 5 5 6 6 6 5 6 6 7 6 6 5 5 5 5 5 6 5 4 3 2 3 4 4 4 4 4 3 3 3 3 2 2 1 1 1 1 1 1 1 1 0 0 0 1 3 4 3 2 2 2 4 5 5 5 4 3 3 3 2 2 2 2 2 2 2
6 6 5 5 5 6 6 6 5 6 6 7 6 6 5 5 5 5 5 6 5 4 3 2 2 3 4 5 4 4 4 3 3 3 2 2 1 1 1 0 0 1 1 1 0 1 1 2 3 4 4 4 3 3 4 5 5 4 4 3 2 1 1 1 1 1 2 2 2
6 6 6 5 5 5 6 6 5 6 6 6 6 5 5 5 5 5 5 6 6 4 4 3 3 3 3 4 4 4 4 3 3 3 2 2 1 1 1 1 1 1 1 1 1 1 2 3 3 4 5 5 4 4 4 5 4 4 4 3 2 1 1 1 1 1 1 2 2
7 6 6 6 6 6 6 6 5 5 6 6 6 5 5 5 5 5 6 6 5 4 4 4 4 3 3 3 3 4 4 3 3 3 2 2 1 1 1 1 2 2 2 2 1 1 2 2 3 4 5 6 5 5 4 4 4 4 3 3 2 2 1 1 1 1 1 2 2
7 7 7 7 7 7 7 6 5 6 6 6 6 6 6 5 5 5 6 6 5 5 4 5 4 3 3 2 2 3 3 3 3 3 3 3 2 2 2 3 3 3 3 2 2 2 2 2 2 3 5 6 5 5 5 4 4 3 3 3 2 2 2 2 2 2 2 2 2
8 8 7 7 8 8 8 7 7 7 7 7 6 6 6 6 6 6 5 6 6 6 6 5 4 4 3 3 3 2 3 3 3 3 3 3 4 4 4 4 4 3 3 3 3 3 3 3 3 3 4 5 5 5 4 4 3 3 2 2 2 2 2 2 2 2 2 2 3
9 8 8 8 9 9 9 8 8 7 7 6 6 6 6 7 7 6 6 5 5 6 6 5 4 4 4 4 3 3 3 3 4 4 4 4 4 4 4 4 4 4 3 3 3 4 4 4 4 5 5 5 4 4 3 3 3 2 2 2 2 2 2 2 3 3 3 3 3
10 9 9 9 9 9 9 8 8 7 6 6 7 7 7 7 7 7 7 6 6 6 6 6 6 5 4 4 4 3 3 3 4 4 4 4 4 5 5 5 4 3 3 4 4 4 4 5 5 5 6 5 5 4 3 2 2 1 1 1 2 2 2 3 3 3 3 3 3
10 10 9 9 9 9 8 8 7 6 6 7 7 8 8 7 7 7 7 6 6 6 6 7 7 6 5 4 4 4 3 3 3 4 4 5 5 6 6 5 4 3 3 3 4 4 5 5 6 6 6 6 5 4 3 2 1 1 1 1 2 2 3 3 3 3 3 3 3
9 9 9 9 9 9 8 7 7 6 6 7 7 7 7 7 7 7 6 5 6 5 5 6 7 7 7 6 5 4 4 3 3 3 4 4 5 5 5 4 3 3 3 4 4 5 5 5 6 6 6 6 5 4 3 2 2 1 1 1 2 3 3 3 3 3 3 3 3
8 8 8 9 9 8 8 7 7 7 7 7 7 7 7 7 6 5 5 5 5 5 5 5 5 6 7 6 6 5 4 3 3 3 3 4 4 4 3 2 3 3 4 4 5 5 6 6 6 6 6 5 4 4 3 3 2 1 1 2 2 3 3 3 3 3 3 3 3
9 8 8 7 8 8 8 7 7 7 7 7 7 7 7 6 5 5 4 5 5 6 5 5 5 5 6 6 6 5 5 4 4 4 4 4 4 3 2 2 3 4 4 4 5 6 6 6 5 5 5 4 4 3 3 3 2 2 2 2 2 2 3 3 3 3 3 4 4
9 9 8 8 8 8 7 7 7 7 7 7 7 7 6 5 5 5 4 5 6 6 6 5 5 5 5 5 5 5 5 5 5 5 5 5 4 3 3 3 3 3 3 4 7 8 8 7 6 5 5 4 3 3 3 2 2 2 2 2 1 2 3 4 4 4 4 4 4
9 9 8 8 8 8 7 7 7 7 7 6 6 5 5 4 4 4 5 5 6 6 6 5 5 5 4 4 4 4 4 5 6 6 6 6 5 3 3 3 3 3 3 5 8 9 10 9 9 7 6 4 4 3 2 2 2 2 2 2 1 1 2 3 4 4 4 4 4
9 9 9 8 8 8 7 7 7 7 6 6 6 5 5 4 4 5 5 5 5 5 5 5 5 5 5 4 4 4 4 4 5 6 6 6 5 4 3 4 3 3 4 7 10 10 11 11 10 9 7 5 4 3 3 2 2 2 2 1 1 1 2 3 4 4 5 5 5
9 9 8 8 8 7 7 6 7 7 7 7 6 6 5 5 5 5 6 6 5 5 4 4 4 4 3 3 4 5 5 5 5 5 6 5 4 4 4 4 4 5 7 10 11 11 11 11 11 10 8 6 4 3 3 3 2 2 1 1 2 2 2 3 3 4 4 5 5
9 9 9 8 8 7 7 7 7 7 7 7 6 5 5 5 6 6 6 6 5 5 4 3 3 3 3 3 4 5 5 5 5 5 4 3 3 4 4 5 5 6 9 11 12 12 12 12 11 10 9 7 5 3 3 3 2 2 2 2 2 2 3 3 3 3 4 4 5
9 9 9 8 8 7 7 7 7 7 6 5 5 5 5 5 6 7 7 7 6 5 4 4 3 3 4 5 5 5 4 5 4 4 4 4 4 4 5 6 6 7 9 12 12 12 12 12 11 10 9 8 6 4 3 3 3 2 2 2 2 3 3 3 3 3 3 3 4
9 8 8 8 7 7 7 6 6 6 5 4 4 4 5 5 6 7 7 7 5 4 3 4 4 5 5 5 4 4 4 4 4 4 4 6 5 5 6 7 7 8 10 13 13 13 12 12 11 10 9 8 6 4 3 3 3 3 3 3 3 3 3 3 3 3 3 3 3
8 8 8 7 7 6 6 5 5 4 4 4 4 5 5 6 6 6 5 5 4 4 3 4 5 5 5 4 4 4 4 5 5 5 6 7 6 6 7 8 8 9 11 14 13 13 13 12 12 11 10 9 6 5 3 3 3 3 3 3 4 4 3 2 2 2 3 3 3
8 7 7 7 6 6 5 4 4 4 4 4 4 5 5 6 5 5 4 4 4 4 5 5 6 6 6 5 5 5 5 5 6 6 7 7 7 7 7 8 7 9 12 15 14 13 13 13 12 11 10 9 6 5 3 3 2 2 3 3 4 4 3 3 2 2 3 3 3
7 7 6 6 6 5 4 3 3 3 3 3 3 5 6 6 5 5 4 4 4 5 5 6 6 6 6 6 5 5 5 6 6 6 6 7 7 8 7 7 6 8 12 15 14 14 13 13 12 11 11 9 6 4 3 3 2 2 3 3 3 3 3 2 2 2 3 3 3
7 7 6 5 5 4 3 3 3 3 2 2 3 5 6 6 6 5 5 5 4 4 4 4 4 4 4 4 4 5 6 6 6 6 6 7 7 8 8 7 6 9 13 15 15 14 13 13 12 12 11 8 5 4 3 3 3 3 3 3 2 2 2 2 2 2 3 3 3
7 7 6 5 4 4 3 3 3 3 2 2 3 5 5 5 5 5 5 4 4 4 4 3 3 3 3 3 4 4 5 6 6 6 6 7 7 8 8 7 7 10 14 16 15 15 14 13 13 12 10 7 4 3 3 3 3 3 3 2 2 2 2 2 2 2 2 3 3
7 7 6 5 4 4 4 5 5 4 2 2 4 5 5 5 4 4 4 3 3 4 4 3 3 4 4 5 5 5 5 6 6 6 6 6 7 8 8 8 8 10 13 16 16 15 15 14 14 12 10 6 4 3 3 3 3 2 2 2 2 2 2 2 2 2 3 3 3
6 6 6 6 5 5 6 6 5 3 2 4 5 5 5 4 4 3 3 3 4 4 4 4 4 4 5 5 5 6 5 5 5 6 6 7 7 8 8 8 8 10 12 16 16 16 15 15 14 13 10 5 5 4 4 3 3 2 2 2 2 2 2 2 2 2 3 4 4
6 6 7 6 6 7 6 5 3 2 4 6 6 5 4 3 3 3 3 3 4 4 4 4 4 4 5 5 5 5 5 4 5 5 6 7 8 8 9 9 9 9 12 16 17 17 16 16 15 14 12 7 6 5 5 4 3 2 2 2 2 2 2 2 2 2 3 4 5
6 6 6 7 7 7 5 3 2 4 5 6 5 4 4 3 3 2 2 2 3 3 4 4 5 5 5 5 5 5 5 4 4 5 6 8 8 9 10 10 9 10 11 15 17 17 17 16 16 15 13 7 6 5 4 4 3 3 2 2 2 2 2 2 2 2 2 3 4
6 6 7 7 7 5 4 3 4 6 6 6 5 4 3 2 2 2 2 2 2 2 3 3 4 4 4 4 5 5 5 4 4 5 6 7 8 9 9 9 9 9 11 14 17 18 18 17 17 16 14 8 6 5 4 4 3 3 3 3 3 2 2 2 2 2 2 3 3
Wind_Direction
105 106 108 109 110 111 110 109 108 111 115 116 116 115 112 109 109 109 106 103 109 114 117 118 120 117 108 93 91 90 87 83 79 78 79 82 83 80 73 62 65 69 73 75 78 81 85 89 89 89 88 95 94 87 73 63 116 104 91 80 85 85 75 57 40 28 22 16 17
107 107 106 106 105 105 105 102 98 96 99 107 114 116 113 110 111 109 104 101 109 112 112 108 101 96 91 84 88 91 93 92 89 86 82 80 81 81 75 69 67 72 77 82 83 87 94 99 99 97 93 84 80 72 54 341 100 88 77 65 70 74 70 56 44 35 27 17 17
113 110 108 107 107 107 108 108 104 102 102 104 107 107 107 106 107 107 107 108 106 102 101 98 91 92 94 92 85 88 95 102 101 96 91 85 79 73 71 73 68 68 72 80 81 79 94 104 105 102 92 76 70 65 49 344 56 77 75 62 60 61 60 54 46 42 37 28 26
118 117 116 116 118 119 120 119 116 114 113 112 104 99 99 103 106 109 109 103 92 89 93 103 102 102 103 102 92 87 87 98 104 105 102 95 82 72 71 70 65 62 64 73 68 41 16 30 64 74 76 74 73 73 73 63 71 75 75 70 63 60 58 52 48 49 48 40 37
121 123 125 127 128 127 125 120 121 122 123 119 106 99 97 101 104 103 97 87 87 92 101 109 110 107 101 98 94 87 80 74 89 101 105 97 82 67 61 61 59 57 59 65 63 51 41 40 53 64 73 83 88 101 119 115 89 80 72 59 58 61 61 54 49 51 52 43 28
127 127 126 126 124 120 116 115 123 128 127 117 108 103 101 100 97 95 95 98 104 107 107 105 107 103 93 84 83 80 72 55 47 60 76 82 60 45 42 44 41 42 48 55 60 67 74 77 77 82 90 98 104 117 127 107 90 82 72 57 53 57 59 54 49 46 42 33 19
132 131 130 127 122 118 115 117 123 125 123 113 110 109 109 105 102 103 108 115 116 114 110 108 106 101 94 85 80 74 66 53 35 32 37 47 37 33 30 22 17 25 37 49 62 83 102 109 107 106 107 108 106 101 89 90 87 82 74 60 50 54 60 55 47 42 38 29 17
132 134 134 132 126 124 123 126 126 123 119 115 117 119 119 115 114 115 116 114 115 117 118 112 108 105 100 93 86 79 72 67 51 39 33 40 35 28 20 11 5 9 22 42 76 119 128 123 121 123 126 120 112 103 95 94 88 84 77 65 48 45 52 55 48 44 37 27 14
133 134 132 128 126 126 127 131 129 127 124 124 127 129 128 125 125 124 122 119 122 121 116 110 111 108 102 97 93 91 91 92 85 70 52 49 41 28 14 5 355 351 352 6 3 145 136 122 119 123 127 125 123 120 112 99 90 85 80 72 54 40 38 44 44 41 36 28 11
143 140 134 127 126 126 126 128 128 128 128 131 133 134 134 132 132 132 132 132 123 114 110 117 116 110 104 101 104 108 113 116 111 99 78 61 50 34 16 1 347 337 328 319 303 196 130 116 110 107 106 112 123 122 112 98 92 88 84 75 60 44 34 28 31 32 29 22 5
152 149 143 137 133 129 126 125 127 129 132 136 138 139 138 137 137 136 133 125 115 113 118 128 121 115 112 113 120 127 130 130 123 111 95 75 62 44 21 359 340 326 315 301 303 285 133 117 111 106 100 100 118 116 108 97 94 90 84 71 62 49 37 20 19 21 20 12 355
156 152 145 139 136 131 128 128 131 134 137 141 144 144 143 143 142 137 128 119 118 123 131 137 128 125 125 131 136 139 138 135 127 117 104 89 75 56 31 3 340 322 311 300 306 280 151 124 118 115 111 105 111 111 105 98 93 87 78 64 58 49 36 12 2 0 3 3 347
155 150 144 138 135 132 131 132 136 140 144 147 150 151 150 148 144 137 129 124 127 131 138 143 136 135 138 143 145 144 142 138 129 120 111 108 101 85 54 10 341 320 310 304 304 245 156 130 126 124 122 115 108 105 103 100 95 90 82 68 58 47 30 353 336 334 345 355 342
153 149 145 140 138 137 136 137 141 146 149 153 156 155 151 148 145 139 134 132 135 138 143 147 147 148 149 151 148 147 145 138 129 123 119 125 126 120 110 5 274 272 271 271 235 174 157 142 135 131 128 121 113 107 103 103 103 103 102 94 81 63 8 309 308 323 339 342 329
153 150 147 141 141 141 142 143 145 148 152 155 158 154 150 148 147 141 136 135 140 144 147 150 155 160 160 155 151 148 145 137 131 128 130 138 141 145 159 207 224 224 219 218 201 181 168 157 147 139 132 127 122 115 109 107 112 118 122 124 128 144 216 266 285 307 321 317 312
156 154 149 143 144 145 146 147 149 149 151 154 155 151 148 148 148 141 137 138 144 149 153 157 160 162 163 160 153 147 142 136 135 137 144 156 164 174 190 211 219 215 205 193 187 187 182 172 157 145 137 134 131 125 119 117 123 129 137 144 154 170 199 234 255 267 273 276 289
160 158 153 147 147 148 150 150 150 150 150 152 152 150 149 149 147 144 143 146 152 158 164 168 163 159 158 164 159 147 141 139 143 152 163 176 183 191 201 214 217 210 198 183 178 180 181 178 164 148 139 136 135 132 130 130 134 141 148 158 169 183 199 217 229 239 247 256 271
164 162 157 150 150 150 151 151 150 150 151 152 152 152 150 148 148 149 152 157 161 166 170 172 168 163 161 166 169 159 149 150 162 172 180 186 188 195 204 215 215 207 192 177 173 174 174 168 158 143 135 133 134 134 134 137 142 149 159 170 183 197 209 220 224 228 234 249 266
166 163 159 155 153 153 152 152 152 152 153 153 152 151 150 149 150 153 160 169 171 171 169 170 173 173 172 171 172 169 163 161 172 181 188 190 191 198 207 216 215 204 186 170 170 172 171 163 151 140 132 129 129 129 130 134 142 153 167 181 196 212 224 230 231 231 234 243 262
167 165 163 160 157 156 155 155 155 155 154 152 150 149 150 152 154 159 167 179 181 176 170 170 175 179 180 175 173 175 177 172 174 183 191 192 195 203 211 216 214 199 177 164 167 168 166 158 148 140 134 130 128 127 127 131 140 159 182 201 217 227 235 239 240 241 244 251 267
168 167 165 162 159 158 158 158 157 155 152 150 149 151 154 158 161 167 173 181 181 177 174 176 179 182 182 179 179 183 186 180 179 186 193 196 202 208 213 213 205 187 167 161 164 164 159 152 145 139 134 130 129 131 134 137 145 169 213 239 245 246 246 245 246 251 258 267 278
171 168 165 162 161 159 159 158 156 154 152 152 153 155 159 164 169 174 176 176 175 177 180 183 184 184 183 181 182 184 185 181 186 192 197 200 208 213 212 202 185 172 164 164 163 157 149 143 139 135 131 128 130 135 141 145 152 176 229 260 264 263 260 255 256 261 269 275 282
171 167 165 163 161 159 157 156 155 154 154 155 157 160 164 169 173 174 174 173 176 182 187 189 188 187 184 181 179 179 179 183 199 207 210 209 216 216 208 181 170 171 173 172 163 152 143 135 133 131 130 129 134 141 149 153 158 176 217 255 268 273 275 273 275 277 281 284 289
169 167 165 162 160 157 155 154 154 156 158 161 163 165 167 170 171 172 173 178 184 189 191 191 190 188 184 180 178 177 180 189 205 218 223 223 220 211 191 164 167 173 178 176 167 156 147 139 137 135 134 134 140 147 154 158 165 179 201 232 265 283 293 297 296 294 292 293 297
167 165 162 160 158 156 153 153 157 161 165 167 167 167 168 169 170 172 177 184 189 191 191 190 189 186 183 180 181 183 187 194 205 215 223 228 221 203 174 159 166 170 171 168 161 153 147 142 142 142 141 140 141 146 152 163 173 183 192 206 243 284 302 309 306 302 299 298 302
164 161 160 159 156 155 156 159 162 165 167 169 168 168 170 172 173 175 179 186 190 190 188 186 186 185 183 182 186 191 197 203 207 212 218 225 222 203 172 158 159 159 158 156 151 147 143 141 143 144 144 142 142 144 153 173 183 186 187 193 207 252 289 301 302 302 302 303 304
161 159 159 157 156 158 161 165 165 166 168 169 170 172 174 173 172 175 180 185 188 188 186 184 186 186 184 182 189 198 208 213 213 214 216 220 215 198 172 156 157 156 154 152 148 145 143 143 145 146 146 143 145 149 158 175 184 187 186 194 201 219 247 268 280 288 296 302 304
159 158 158 157 160 164 167 166 166 169 172 173 175 176 174 169 173 178 183 186 184 183 183 187 188 184 180 183 196 205 211 215 216 215 215 214 201 180 164 157 159 159 156 153 149 147 147 148 150 151 150 149 149 152 156 163 174 185 196 206 215 224 234 245 260 273 285 295 300
158 157 158 162 168 170 170 168 172 175 177 177 176 174 172 171 179 184 187 185 182 182 185 193 187 179 180 195 206 211 214 216 215 211 206 195 174 161 157 156 159 160 159 156 153 152 152 153 155 156 155 154 151 149 151 155 167 182 202 218 222 227 235 243 255 267 279 288 295
158 159 163 169 173 174 175 176 178 179 178 176 172 171 173 180 187 189 189 186 185 188 190 187 179 184 195 206 209 212 214 217 212 202 189 176 166 161 161 162 163 164 164 161 158 157 157 158 161 161 160 155 150 148 149 156 166 181 201 220 224 229 234 242 255 268 279 286 292
160 163 168 172 176 178 180 180 180 178 174 169 168 173 180 189 193 193 192 189 191 192 190 181 184 194 204 208 206 208 212 215 207 196 185 175 169 165 165 168 167 168 167 166 164 163 163 164 165 166 165 160 156 153 155 161 171 184 199 215 222 226 230 237 251 265 275 279 282
163 167 170 174 178 181 182 180 178 173 169 166 171 180 188 195 197 197 195 192 193 193 193 191 197 204 211 212 208 209 212 211 207 198 188 177 172 167 168 172 173 173 171 171 169 169 168 169 169 170 171 169 165 162 162 165 176 187 201 214 220 223 224 229 244 258 265 263 255
166 168 171 175 179 180 179 175 171 166 164 168 178 188 195 198 199 199 199 199 198 199 200 202 205 209 211 211 210 212 213 212 207 199 190 179 170 165 166 173 178 177 175 175 174 173 173 173 173 175 177 177 172 166 161 162 172 187 205 217 221 220 219 220 231 242 248 244 231
167 168 170 172 173 172 168 162 157 154 158 169 188 197 200 199 200 202 205 208 206 204 203 205 206 207 207 204 203 206 210 212 206 199 189 178 168 164 165 175 183 182 179 177 177 177 177 176 177 179 181 181 172 162 156 160 173 194 208 218 222 222 219 217 221 226 228 226 220
165 164 165 165 163 160 154 147 140 137 143 166 199 207 207 203 203 205 209 212 209 209 210 211 207 205 202 200 200 203 206 209 206 199 190 178 168 165 168 178 184 183 181 179 180 180 180 180 181 183 184 179 166 153 154 164 185 198 205 210 222 231 233 227 223 219 217 213 213
161 159 157 157 154 149 139 128 113 106 112 168 208 214 214 212 213 214 213 209 208 211 217 218 212 207 205 207 206 205 205 206 204 199 190 178 169 168 172 179 183 184 183 182 183 183 183 183 184 185 184 175 159 150 159 174 193 197 196 193 219 238 244 240 235 227 220 215 216
158 154 150 147 139 128 115 103 94 94 115 202 217 219 218 218 222 221 215 203 208 215 220 218 212 209 209 210 210 209 206 201 196 192 187 180 172 170 172 179 182 184 185 185 185 186 186 186 188 187 183 168 160 162 173 188 197 192 184 187 220 236 240 238 236 233 231 229 231
151 145 139 131 122 110 98 88 89 106 191 225 227 225 220 215 221 220 213 199 206 213 218 216 214 214 213 212 212 212 208 201 190 185 183 183 177 172 172 177 183 186 186 186 187 187 188 189 191 189 184 168 168 173 180 188 190 185 181 195 225 241 245 238 234 236 239 241 254
140 133 127 120 108 96 87 83 101 192 227 235 236 234 228 221 222 219 209 195 199 204 209 213 216 218 216 210 210 211 211 207 193 185 183 186 184 177 172 176 184 188 188 187 188 189 190 192 194 192 188 175 174 176 179 179 176 175 182 201 229 252 261 256 244 243 249 253 270
129 121 112 102 95 91 93 111 194 226 234 237 238 236 232 226 223 218 206 191 193 197 203 210 218 220 216 204 202 206 211 213 205 196 190 189 187 180 175 174 181 186 189 189 189 190 192 194 196 195 191 180 177 176 174 168 165 171 190 210 220 243 264 274 264 256 257 263 274
117 104 96 92 96 105 128 181 220 232 235 234 232 229 223 219 218 211 201 192 198 201 206 214 221 220 211 195 194 198 204 213 215 210 202 193 186 181 178 174 178 183 188 190 190 192 194 196 198 197 194 183 179 175 169 158 161 178 201 216 211 219 239 270 280 277 269 266 272